Flag for U.S.A. Weather past 2 weeks in Lakeland, Florida, U.S.A.

Now
55 °F

Clear.


Feels Like: 55 °F
Forecast: 53 / 76 °F
Wind: No wind

Location: Lakeland Regional

Current Time: Dec 19, 2014 at 11:58:05 PM

Latest Report: Dec 19, 2014 at 11:15 PM


Visibility: 10 mi

Pressure: 30.10 "Hg

Humidity: 67%

Dew point: 45 °F

Location of LakelandLocation

Historic Weather in Lakeland — Graph

°F

Lakeland temperature yesterday

Maximum temperature yesterday: 68 °F (at 2:50 PM)
Minimum temperature yesterday: 43 °F (at 3:35 AM)
Average temperature yesterday: 51 °F

Past Weeks' High & Low Weather Summary

 TemperatureHumidityPressure
High81 °F (Dec 6, 11:50 AM)100% (Dec 5, 1:35 AM)30.30 "Hg (Dec 5, 1:35 AM)
Low37 °F (Dec 11, 3:55 AM)29% (Dec 14, 3:56 PM)30.02 "Hg (Dec 9, 2:50 PM)
Average55 °F84%30.14 "Hg
* Reported Dec 4 10:35 PM — Dec 19 10:35 PM, Lakeland, Weather by CustomWeather, © 2014

Note: Actual official high and low records may vary slightly from our data, if they occured in-between our weather recording intervals... More about our weather records

Advertising

Lakeland weather history for previous 24 hours

 ConditionsComfort  
Time TempWeatherWind HumidityBarometerVisibility
10:35 PM
Dec 19
57 °FClear.3 mph63%30.10 "Hg10 mi
9:55 PM57 °FClear.7 mph63%30.10 "Hg10 mi
9:15 PM59 °FClear.No wind63%30.09 "Hg10 mi
8:55 PM59 °FPassing clouds.No wind68%30.09 "Hg12 mi
6:55 PM61 °FPassing clouds.5 mph63%30.08 "Hg12 mi
5:53 PM66 °FPassing clouds.No wind52%30.07 "Hg12 mi
4:54 PM72 °FScattered clouds.3 mph41%30.06 "Hg12 mi
3:54 PM72 °FScattered clouds.5 mph38%30.05 "Hg12 mi
2:50 PM70 °FScattered clouds.7 mph46%30.06 "Hg10 mi
1:50 PM70 °FScattered clouds.3 mph46%30.08 "Hg10 mi
12:50 PM70 °FScattered clouds.5 mph50%30.09 "Hg10 mi
11:50 AM66 °FScattered clouds.5 mph56%30.13 "Hg10 mi
10:50 AM66 °FScattered clouds.5 mph56%30.14 "Hg10 mi
9:50 AM63 °FScattered clouds.5 mph64%30.16 "Hg10 mi
8:50 AM55 °FScattered clouds.3 mph82%30.15 "Hg10 mi
7:50 AM48 °FScattered clouds.No wind94%30.13 "Hg10 mi
6:50 AM48 °FClear.No wind87%30.12 "Hg10 mi
5:50 AM48 °FClear.No wind87%30.10 "Hg10 mi
4:35 AM46 °FClear.No wind93%30.10 "Hg10 mi
4:15 AM46 °FClear.No wind93%30.11 "Hg10 mi
3:55 AM46 °FClear.No wind93%30.10 "Hg10 mi
3:35 AM46 °FClear.No wind93%30.11 "Hg10 mi
3:15 AM46 °FClear.No wind93%30.11 "Hg10 mi
2:55 AM46 °FClear.No wind93%30.12 "Hg10 mi
2:35 AM50 °FClear.No wind88%30.13 "Hg10 mi
2:15 AM48 °FClear.No wind94%30.13 "Hg10 mi
1:55 AM48 °FClear.No wind94%30.12 "Hg10 mi
1:15 AM50 °FClear.No wind88%30.13 "Hg10 mi
12:55 AM48 °FClear.No wind94%30.14 "Hg10 mi
12:35 AM50 °FClear.No wind88%30.13 "Hg10 mi
12:15 AM48 °FClear.No wind87%30.13 "Hg10 mi
11:55 PM
Dec 18
50 °FClear.No wind88%30.13 "Hg10 mi
11:35 PM50 °FClear.3 mph88%30.15 "Hg10 mi
11:15 PM50 °FClear.3 mph88%30.15 "Hg10 mi
Weather by CustomWeather, © 2014

See weather overviewHow to use our weather pages